FENGYUN 1C DEB

Satellite information

Favourite Embed

Satellite Type and Status

DEBRISIN ORBIT

Key statistics

Satellite FENGYUN 1C DEB at a glance.

Uptime

9555

Days in orbit

Revolutions

≈ 14.1

Per day

Orbit

SSO

Sun Synchronous Orbit

Inclination

98.8

Latest

Satellite identification and parameters

Extended collection of information and parameters for FENGYUN 1C DEB.

Object identification

Identified? True

Debris? True

Object name: FENGYUN 1C DEB

International designator: 1999-025CJ

Object number (NORAD): 29792

Object ID (CCSDS): 29792

Country: PEOPLES REPUBLIC OF CHINA (PRC)

Current information (Y/N): Y

RCS size: SMALL

Orbital parameters

Period: 101.817 minutes

Inclination: 98.7703 deg

SMA: 7222.843 km

Apoapsis: 882.049 km

Periapsis: 807.367 km

RAAN: 241.1363 deg

Eccentricy: 0.0051698

Argument of periapsis: 127.9003 deg

Mean anomaly: 232.6861 deg

Mean motion: 14.14296624 rev/day

Mean motion (dot): 0.00001429 rev/day2

B* drag term: 0.00076099 1/REarth

Two-line elements (TLE)

Creation date: July 6, 2025, 10:46 p.m.

Reference frame: TEME

Reference center: EARTH

Epoch: July 6, 2025, 4:06 p.m. UTC

TLE line 0: 0 FENGYUN 1C DEB

TLE line 1: 1 29792U 99025CJ 25187.67084929 .00001429 00000-0 76099-3 0 9992

TLE line 2: 2 29792 98.7703 241.1363 0051698 127.9003 232.6861 14.14296624947003

Live tracking on map

Real-time ground track for satellite FENGYUN 1C DEB.

In-orbit conjunctions

A list of the most updated potential collisions computed for object FENGYUN 1C DEB.

Target Orbit TCA Probability of collision Miss distance Type
CZ-6A DEB LEO 2024-10-29 21:06:54 0.0002801139 744.0 (m) DEBRIS
FENGYUN 1C DEB SSO 2024-09-27 12:39:27 0.0003408495 922.0 (m) DEBRIS
FENGYUN 1C DEB SSO 2024-06-13 12:31:22 0.0001085511 140.0 (m) DEBRIS

Associated space launch

Chinese polar orbiting meteorological satellite

FENGYUN 1C DEB was lifted into orbit during the mission ‘Long March 4B | Feng Yun 1C’, on board a Long March 4B space rocket.

The launch took place on May 10, 1999, 1:33 a.m. from Launch Complex 7.

For more information about the launch, click the button.

Launch to space Long March 4B | Feng Yun 1C
Long March 4B | Feng Yun 1C

Agency: N/A

Status: Launch Successful

Launch date: May 10, 1999, 1:33 a.m. UTC

Rocket: Long March 4B

Launch pad: Launch Complex 7

Location: Taiyuan Satellite Launch Center, People's Republic of China

...

Latest news about this satellite

There are no fresh news available about this satellite. Check back as we update our databases every day.


Newsletter sign-up

Weekly statistics, charts and insights to help you stay on top of the space industry.